STARLINK-1945 (46775 NORAD) Tracking and Keplerian Element Data

This shows tracking and keplerian element data for the satellite.

Feedback or suggestion? Click here.




ElementValue
Catalog46775
NameSTARLINK-1945
Epoch Orbit1327
Epoch Day17.91667824
Epoch Year2021
RAAN121.8082
Inclination53.0464
Eccentricity0.0001083
Argument of Perigee101.4023
Mean Anonmoly12.9693
Mean Motion15.06422405
Decay Rate-0.00031531
L11 46775U 20074AN 21017.91667824 -.00031531 00000-0 -21060-2 0 9992
L22 46775 53.0464 121.8082 0001083 101.4023 12.9693 15.06422405 13270

Live tracking and technical data element details for STARLINK-1945 (NORAD 46775). STARLINK-1945 can be tracked NOW for your location showing map with azimuth and elevation plus other details from your city location.

Track the satellite on the map from your city or location and see movement details for azimuth, elevation, latitude, longitude, range, height, and movement on the map or in text.







IsCatalogInMostPopularTable: catalog: 46775, numindb: 30
Update: records affected: 1



GetName: 46775 STARLINK-1945

Hit Count: updated at: Mon, 18 Jan 2021 17:17:31 GMT